Theta_e
303 302 302 302 302 303 303 303 304 304 305 306 306 307 309 310 311 312 314 317 318 320 329 336 345 345 352 350 356 351 350 350 344 359 362 355 358 353 352 353 350 349 347 345 347
301 301 302 302 302 302 302 302 302 303 304 304 306 306 308 309 311 317 318 320 316 321 334 341 344 343 342 343 347 348 346 345 340 353 358 356 356 355 355 355 354 348 345 346 349
303 302 302 302 302 302 302 302 302 302 302 303 305 306 307 309 317 313 323 321 325 320 327 330 330 328 334 333 335 336 337 338 348 351 354 356 356 354 355 358 353 349 348 348 349
302 302 302 302 302 302 302 302 303 302 303 303 304 306 308 313 313 320 322 321 322 319 327 327 322 321 325 330 330 331 330 332 344 353 354 357 353 355 354 354 351 345 347 348 349
302 302 302 301 301 301 302 302 303 303 303 303 304 307 313 318 312 317 318 316 320 322 328 324 321 322 325 327 329 330 329 337 346 346 353 354 356 355 354 352 346 347 348 349 349
302 302 302 302 302 302 302 302 303 303 304 304 306 308 314 309 314 315 315 315 320 325 327 324 323 321 325 327 327 327 326 340 340 341 350 356 356 354 351 351 347 348 349 349 349
301 301 302 302 302 302 302 302 303 305 306 307 309 313 320 310 314 322 321 319 321 326 321 325 324 324 324 327 324 323 331 336 337 342 353 354 359 358 349 350 348 349 350 350 347
301 301 301 301 302 302 302 303 306 311 312 310 311 320 315 313 314 314 315 315 318 324 324 325 322 322 324 324 321 322 328 336 335 342 351 345 358 356 348 350 352 351 350 348 347
301 301 301 301 301 302 302 307 314 314 313 312 318 319 312 315 319 316 314 314 316 320 320 326 322 322 324 322 319 318 327 337 338 335 349 343 357 356 349 349 350 349 348 347 346
300 300 300 300 301 301 305 310 316 317 320 319 321 318 315 319 323 321 319 314 319 320 323 324 320 320 316 318 322 322 326 334 339 337 339 346 354 356 353 351 350 348 348 347 346
300 300 301 301 301 302 306 311 307 309 314 317 316 318 317 319 321 321 317 316 319 324 324 322 322 321 322 320 320 322 323 338 341 338 340 342 349 359 354 352 353 351 350 348 348
299 299 299 300 301 306 302 306 309 309 308 310 310 312 315 317 319 320 319 318 319 321 323 323 323 322 321 319 321 321 323 323 330 342 342 340 344 357 356 354 353 353 351 350 349
299 298 298 299 301 305 302 307 305 306 305 310 311 312 314 316 318 319 318 318 319 319 322 324 324 323 323 321 321 321 321 322 330 343 341 341 343 352 354 353 353 352 351 351 351
298 298 298 298 301 301 304 303 305 308 308 312 311 312 313 316 318 319 320 319 319 320 322 323 325 326 323 323 321 321 321 324 328 339 346 342 348 341 348 350 349 349 348 347 346
297 298 298 299 303 303 302 303 308 307 315 318 314 314 312 318 321 319 322 318 319 320 321 324 324 326 326 325 320 321 323 324 328 333 339 342 342 338 341 346 347 347 347 347 344
298 297 298 302 303 302 303 303 308 311 317 319 316 315 316 317 320 322 321 319 318 320 321 322 320 324 324 324 322 322 323 322 324 329 336 336 343 340 342 343 343 344 344 345 345
299 298 299 303 303 303 303 304 309 312 315 318 315 312 315 317 319 321 322 319 319 318 320 322 323 321 322 322 320 320 319 320 324 326 334 333 340 340 338 340 341 341 343 344 344
300 299 299 305 305 304 306 304 311 312 313 312 311 311 314 317 319 321 321 321 317 318 317 320 324 322 320 320 320 317 317 321 326 327 330 328 337 339 336 336 339 340 340 343 343
301 299 300 305 304 304 302 306 307 310 311 311 310 312 311 313 315 320 319 323 320 317 320 320 322 322 321 319 318 318 319 318 321 323 326 326 327 328 329 331 334 340 340 341 342
301 302 301 303 304 304 304 306 306 310 310 310 310 310 311 310 313 316 315 317 321 319 318 319 322 321 323 321 319 318 317 321 318 323 326 324 328 329 328 333 336 340 340 340 341
301 297 300 305 304 301 305 306 308 309 309 310 310 310 310 310 311 312 315 317 319 319 318 318 320 323 322 321 321 316 317 316 318 319 323 325 326 324 328 328 332 340 339 339 340
298 296 300 306 301 302 305 308 308 309 309 309 309 308 309 309 309 311 315 318 320 319 321 318 318 322 322 322 321 318 316 316 318 319 321 323 327 328 327 330 331 337 339 338 339
299 296 304 305 306 307 306 309 310 309 309 309 309 310 308 307 309 311 315 319 319 321 321 318 317 320 322 320 321 321 315 313 313 314 322 326 327 326 326 329 337 339 338 337 338
299 300 299 301 304 308 308 309 310 309 310 309 308 310 309 309 306 309 316 319 317 320 331 327 314 323 324 322 321 321 318 315 316 317 318 322 322 327 325 326 326 334 336 337 337
296 299 302 301 302 304 306 309 309 311 309 307 308 310 309 309 315 313 313 313 315 317 316 317 322 320 322 321 322 322 322 316 316 316 319 319 320 321 322 323 325 329 327 333 336
301 305 300 300 300 305 307 308 310 310 308 309 310 310 309 309 309 310 309 312 313 312 313 313 321 319 322 322 322 325 324 318 317 316 317 318 318 318 321 323 326 327 330 330 333
302 302 302 301 299 305 309 308 308 307 308 308 309 308 308 309 308 307 305 306 309 312 313 316 318 317 324 321 322 324 324 323 319 317 318 319 320 321 323 325 326 330 328 330 331
Wind_Speed
25 26 26 26 26 24 24 24 24 23 24 24 25 25 24 26 28 25 8 17 8 10 11 14 10 7 5 2 4 2 2 3 3 7 7 9 6 9 5 11 3 3 5 20 28
27 27 27 27 27 26 26 25 25 25 24 25 24 24 22 24 23 17 26 19 16 14 16 16 7 9 3 5 4 4 3 6 6 7 13 13 14 12 7 10 4 9 20 26 27
28 29 29 28 28 28 27 27 27 25 25 26 23 21 19 17 6 8 4 13 10 21 16 15 7 7 5 5 5 6 6 7 6 8 17 16 11 3 16 4 6 22 22 23 23
31 31 31 31 31 30 31 31 29 26 27 26 21 17 14 4 6 2 4 8 16 19 14 7 4 5 4 4 4 5 9 7 11 10 12 16 10 7 7 5 14 25 26 24 18
32 34 34 34 34 35 34 34 30 29 30 24 18 12 2 2 11 20 17 24 12 15 15 7 5 4 3 3 4 4 8 6 20 16 17 14 9 6 6 9 16 18 20 20 17
34 36 37 37 37 38 38 35 35 32 27 21 15 4 3 8 15 16 14 13 9 17 10 7 7 8 3 4 2 4 6 5 11 14 17 13 7 5 6 14 19 20 18 17 18
36 37 39 40 40 41 39 42 38 31 25 18 10 5 4 17 7 2 2 5 9 13 4 15 13 2 0 4 4 3 4 4 3 5 5 17 2 4 14 17 21 18 15 15 14
37 38 41 42 43 44 44 41 34 30 21 13 9 8 8 13 15 27 31 30 21 12 16 11 9 5 5 5 8 5 4 4 4 5 9 5 5 10 16 20 19 18 16 15 16
39 40 42 44 45 45 45 34 19 6 5 11 11 7 10 3 8 24 26 12 14 19 16 7 5 6 4 5 5 5 4 4 4 7 9 2 3 17 16 17 18 17 17 16 16
39 42 44 46 46 47 33 20 7 7 9 5 0 2 6 5 6 8 14 24 4 4 2 5 3 4 4 4 6 5 4 4 7 9 5 4 5 18 19 17 19 18 17 17 17
40 42 45 47 46 39 29 6 5 3 3 7 5 5 6 9 4 2 8 12 5 5 7 5 5 7 11 8 6 6 3 4 5 8 6 7 8 21 21 16 17 16 17 17 18
41 43 46 47 47 18 26 4 7 6 12 13 21 22 36 8 6 3 16 7 6 7 5 1 8 9 7 8 4 2 2 3 3 4 4 5 3 15 22 25 21 21 18 19 19
41 43 46 48 35 6 26 1 19 21 5 8 9 8 8 15 10 8 8 5 6 8 7 8 5 9 7 5 7 4 5 4 4 3 4 6 3 9 16 13 17 18 20 18 20
44 44 44 51 7 29 15 23 29 11 4 8 6 8 7 10 8 15 13 7 3 15 8 7 11 8 8 7 6 5 8 3 2 4 4 7 5 8 15 19 16 19 19 19 20
43 45 44 39 17 9 15 27 30 3 5 3 5 2 6 15 7 13 19 4 10 7 8 8 9 11 6 10 8 9 5 8 5 5 1 2 0 7 14 15 22 22 21 20 18
45 45 45 20 11 23 18 30 7 3 9 5 4 4 6 7 3 5 8 4 6 6 3 10 4 9 11 4 10 4 3 7 5 4 2 12 9 6 8 25 24 19 21 21 20
47 48 34 17 7 17 22 7 3 5 7 4 5 6 5 5 6 7 16 14 11 8 13 2 11 3 4 6 4 6 7 1 2 1 6 5 2 11 9 13 23 23 25 23 21
47 44 24 11 25 15 7 4 5 4 7 6 7 9 7 7 7 2 14 13 5 7 5 7 5 11 6 9 8 7 9 6 5 4 4 6 7 16 18 10 12 18 22 21 19
45 37 17 13 25 2 4 3 7 3 5 11 10 6 6 6 3 3 8 20 21 10 8 8 7 2 7 6 13 5 6 9 5 2 3 4 7 10 8 12 10 19 14 19 20
34 15 13 22 22 6 4 5 4 2 8 6 5 6 4 8 6 2 8 7 15 10 7 7 4 5 4 5 5 9 8 4 2 7 5 5 5 6 9 9 9 11 16 18 19
11 5 4 34 4 4 3 6 6 2 9 7 4 5 4 4 5 5 4 3 10 16 9 7 4 3 7 7 10 4 4 4 6 5 7 3 7 8 9 10 11 15 17 18 18
5 4 19 29 4 2 1 8 9 13 5 7 6 8 7 6 4 3 4 4 8 5 17 9 6 6 7 4 8 8 10 8 5 5 1 5 11 6 9 9 9 11 15 18 18
4 3 9 10 4 4 7 6 4 8 5 5 5 9 10 6 5 6 5 2 13 10 9 9 4 3 4 6 2 5 5 6 5 4 8 7 9 3 6 5 5 8 8 9 15
2 4 4 4 0 4 7 5 7 10 5 8 6 8 7 8 8 7 8 5 11 7 10 2 6 21 12 5 6 6 6 6 8 5 6 7 6 5 6 5 5 8 9 10 11
1 3 2 4 4 5 5 5 9 7 4 7 7 11 7 4 1 3 3 6 5 10 7 2 15 9 15 8 6 7 6 10 9 8 9 11 9 9 10 10 10 4 9 11 11
1 2 4 4 4 5 2 1 7 8 4 5 9 17 5 4 5 5 4 2 4 7 7 7 2 7 11 15 9 7 8 9 8 4 5 6 9 10 12 7 8 10 8 11 14
1 1 2 5 5 2 2 5 6 16 8 7 7 5 6 6 7 12 10 8 6 2 3 4 2 5 19 5 6 7 18 8 5 5 9 8 15 8 7 10 9 7 9 10 9
Wind_Direction
2 359 355 352 348 344 341 339 339 338 335 329 328 327 326 321 316 311 266 260 231 205 196 162 177 197 174 249 222 215 10 260 262 152 140 143 130 157 76 138 145 124 126 148 158
0 357 353 350 346 342 340 337 335 332 329 328 324 325 323 325 321 285 292 285 247 199 165 152 167 174 186 210 203 162 186 243 229 150 152 164 153 151 130 163 72 98 115 145 153
359 356 352 349 344 341 337 333 330 328 328 326 319 320 322 329 317 249 32 21 229 204 186 189 158 175 210 173 206 196 213 214 164 161 153 151 145 123 144 196 190 150 147 154 161
359 355 352 349 344 339 337 333 328 326 323 322 316 315 322 329 273 221 237 345 20 193 205 176 173 181 211 230 237 267 235 202 178 161 146 160 140 136 178 223 172 158 154 156 166
357 355 352 348 345 340 335 331 325 320 320 314 310 315 326 230 245 248 276 290 312 182 202 177 164 162 206 235 300 229 266 160 150 156 166 151 154 139 229 126 144 147 155 162 165
355 353 350 346 342 338 335 328 323 316 312 308 298 279 182 240 264 282 268 268 231 187 199 181 181 202 243 247 260 272 332 135 147 158 162 142 143 94 142 136 151 156 167 170 174
353 351 348 345 342 337 334 326 320 312 304 291 272 189 239 233 249 246 230 235 214 205 185 211 215 111 235 303 264 297 66 71 7 149 121 110 94 169 152 152 158 170 175 182 187
353 350 347 344 341 337 332 324 319 307 288 262 190 160 242 260 268 263 250 253 249 244 236 266 197 151 160 292 342 40 49 128 212 153 164 107 189 155 162 156 169 175 186 193 197
352 350 347 344 341 338 332 329 325 13 72 137 137 174 265 286 230 248 244 218 207 222 244 255 149 177 131 118 1 22 156 187 177 232 155 75 140 167 169 170 174 185 191 194 205
352 350 346 344 341 338 333 340 44 78 92 107 309 313 253 238 214 228 224 213 154 121 75 186 188 137 95 112 186 194 213 208 180 199 187 161 168 168 177 179 186 190 195 200 203
352 349 346 342 340 339 349 6 9 343 324 237 203 262 298 349 315 184 179 140 139 115 160 204 156 194 186 171 163 146 130 222 210 203 143 191 154 178 183 189 193 200 199 204 205
351 349 346 342 339 340 356 45 81 308 295 257 245 246 255 294 309 301 159 135 149 184 157 63 212 213 117 151 162 181 166 258 288 148 120 165 218 186 186 198 195 195 201 205 211
350 348 346 341 340 352 338 147 333 344 243 275 220 223 209 173 215 253 173 152 149 171 177 199 237 150 160 156 162 204 180 207 155 84 63 113 10 185 210 212 212 214 206 204 208
347 347 347 342 351 333 308 332 332 338 299 269 229 251 170 133 236 202 196 146 163 196 142 214 236 189 145 187 141 190 208 144 168 111 213 169 241 221 200 215 213 213 210 204 210
343 343 343 341 300 305 307 328 332 116 313 199 190 158 173 170 142 207 180 125 180 161 139 224 198 190 169 203 157 222 139 179 161 202 113 283 58 263 188 215 219 214 213 210 202
341 340 340 338 295 299 320 324 327 48 244 308 129 143 125 249 272 96 148 189 146 165 133 210 202 164 209 153 184 88 83 49 66 116 175 232 193 250 183 215 222 218 213 211 208
340 339 345 331 280 307 314 339 71 198 323 341 358 29 278 204 244 160 168 175 173 150 201 171 231 218 147 168 203 110 87 307 341 109 214 192 184 235 227 220 214 209 212 210 207
339 339 350 351 357 323 321 58 208 234 273 6 339 295 196 159 232 189 153 180 202 128 135 163 219 205 193 183 178 172 153 155 175 208 222 79 221 247 233 227 229 220 215 202 202
340 340 337 1 353 342 76 174 210 261 6 334 324 29 327 347 4 151 181 193 190 182 155 154 237 251 181 169 160 196 156 183 136 30 74 221 284 311 249 268 225 219 198 198 203
338 324 304 352 342 142 71 246 261 331 359 354 16 1 325 325 17 155 176 188 192 181 156 192 191 210 175 134 211 163 170 99 347 170 206 268 258 229 283 247 239 227 195 198 206
353 354 320 344 114 54 173 240 294 343 6 350 325 302 301 292 353 313 261 255 171 194 161 147 125 262 185 191 177 133 161 62 125 140 171 205 262 207 232 247 231 217 203 196 202
13 338 333 342 63 18 18 311 295 302 309 255 257 227 241 278 294 292 260 11 340 224 197 192 160 215 198 206 181 174 176 158 139 216 186 169 256 198 225 255 220 213 207 206 203
322 262 338 13 48 347 312 294 285 2 317 312 298 281 283 288 293 234 272 17 9 23 197 169 196 189 291 300 154 178 170 124 113 106 189 153 251 286 286 8 291 194 212 219 211
7 339 324 23 185 358 344 314 326 327 281 338 256 312 286 258 211 272 343 320 334 13 349 265 150 211 220 218 147 160 161 168 151 153 174 221 240 272 276 267 240 222 239 219 198
69 267 249 306 326 311 338 308 328 336 319 325 334 344 309 263 305 178 328 312 306 1 1 95 208 188 210 183 158 181 171 169 181 186 183 229 196 222 248 281 288 287 227 225 213
275 332 340 277 291 326 329 3 298 330 279 310 350 329 14 59 355 314 360 295 273 330 2 341 271 149 228 212 197 213 211 181 199 182 194 233 244 192 219 223 269 262 239 214 214
289 24 252 278 309 328 352 323 309 306 298 300 314 314 316 307 309 269 245 251 235 295 307 17 67 135 228 183 116 258 222 179 170 172 162 203 236 178 202 205 228 216 208 198 207